Temperature
8 9 10 9 9 10 9 9 9 9 8 8 8 8 8 8 8 7 7 6 6 6 6 7 7 7 7 8 8 8 9 9 9 9 9 9 9 9 9 9 9 9 8 8
8 9 10 9 9 9 9 9 9 9 8 9 9 9 8 8 7 7 6 6 6 6 6 6 6 7 7 7 7 8 8 8 8 8 8 8 8 8 8 8 8 8 8 8
8 9 9 8 9 9 9 9 9 8 8 8 8 8 8 7 7 6 6 5 5 5 5 5 5 6 6 6 7 7 7 7 7 7 7 7 7 7 7 7 7 7 7 7
7 8 7 8 9 9 9 9 9 9 8 8 7 7 7 6 6 5 5 5 4 4 4 4 5 5 5 5 6 6 6 6 6 6 6 6 6 6 6 6 6 6 6 6
7 8 8 8 8 9 9 8 8 8 8 8 7 7 6 6 5 5 4 4 4 4 4 4 4 4 4 4 4 5 5 5 5 5 5 5 5 5 5 5 5 5 5 5
8 8 8 8 8 9 8 7 8 8 7 7 7 6 5 5 5 4 4 4 4 4 4 4 4 4 4 4 4 4 4 4 4 4 4 4 4 4 4 4 4 4 4 4
7 8 8 8 8 8 7 7 8 8 8 7 6 5 5 4 4 4 3 3 3 3 3 3 3 3 3 3 3 3 3 3 3 3 3 3 3 3 3 3 3 3 3 3
7 7 7 7 7 7 6 7 7 7 7 6 5 5 4 4 3 3 3 3 3 3 2 2 2 2 2 2 2 2 2 2 2 2 2 2 2 2 2 2 2 2 2 2
7 7 7 8 7 7 7 7 6 6 6 5 5 4 4 3 3 3 2 2 2 2 2 2 1 1 1 1 1 1 1 1 1 1 1 1 1 1 1 1 1 1 1 1
7 7 8 7 7 6 6 6 6 5 5 5 4 3 3 3 2 2 2 1 1 1 1 1 1 0 0 -0 -0 -0 -0 -0 -0 -0 -0 -0 -0 -0 -0 -0 -0 -0 -0 -0
6 7 7 7 6 6 5 5 5 5 4 4 3 3 2 2 2 1 1 1 1 0 0 -0 -0 -1 -1 -1 -1 -1 -1 -1 -1 -1 -1 -1 -1 -1 -1 -1 -1 -1 -1 -1
5 7 6 6 6 6 5 5 4 4 4 3 3 2 2 2 1 1 1 0 -0 -0 -1 -1 -1 -1 -1 -2 -2 -2 -2 -2 -2 -2 -2 -3 -3 -2 -2 -2 -2 -2 -2 -2
7 7 7 6 6 5 5 4 4 4 3 3 2 2 2 1 1 0 0 -0 -1 -1 -1 -1 -1 -2 -2 -2 -2 -3 -3 -3 -3 -3 -3 -3 -3 -3 -3 -2 -2 -2 -2 -2
6 6 5 5 5 4 4 4 3 3 3 2 2 2 1 1 0 -0 -0 -1 -1 -1 -2 -2 -2 -2 -3 -3 -3 -3 -3 -3 -3 -4 -4 -4 -4 -4 -4 -4 -4 -3 -3 -3
5 5 5 4 4 3 3 3 3 2 2 2 1 1 1 0 -0 -1 -1 -1 -2 -2 -2 -2 -3 -3 -3 -3 -3 -3 -4 -4 -4 -4 -4 -4 -5 -5 -5 -5 -5 -4 -4 -4
4 4 4 3 3 3 3 2 2 2 2 1 1 0 -0 -0 -1 -1 -2 -2 -2 -3 -3 -3 -3 -3 -4 -4 -4 -4 -4 -4 -5 -5 -5 -5 -5 -5 -5 -5 -5 -5 -5 -5
3 2 2 2 3 2 2 2 2 1 1 1 0 -0 -1 -1 -1 -2 -2 -3 -3 -3 -3 -4 -4 -4 -4 -4 -5 -5 -5 -5 -5 -5 -6 -6 -6 -6 -6 -6 -6 -6 -6 -6
4 4 4 4 3 2 2 1 1 1 0 0 -0 -1 -1 -2 -2 -3 -3 -3 -3 -4 -4 -4 -4 -5 -5 -5 -5 -5 -6 -6 -6 -6 -6 -6 -6 -6 -6 -6 -6 -6 -6 -6
3 3 3 3 2 2 2 1 1 0 -0 -0 -1 -2 -2 -3 -3 -3 -4 -4 -4 -4 -5 -5 -5 -5 -5 -5 -6 -6 -6 -7 -7 -7 -7 -7 -7 -7 -7 -7 -7 -7 -7 -7
2 2 2 2 2 1 1 1 0 -0 -1 -1 -2 -2 -3 -3 -4 -4 -4 -5 -5 -5 -6 -6 -6 -6 -6 -6 -7 -7 -7 -7 -7 -7 -7 -7 -7 -7 -7 -7 -7 -7 -7 -7
1 2 2 2 1 1 0 -0 -0 -1 -1 -2 -3 -3 -3 -4 -4 -5 -5 -5 -5 -6 -6 -6 -6 -7 -7 -7 -7 -7 -8 -8 -8 -8 -8 -8 -8 -8 -8 -8 -8 -7 -7 -7
1 1 1 1 1 0 -0 -1 -1 -2 -2 -3 -3 -4 -4 -4 -5 -5 -5 -6 -6 -7 -7 -7 -7 -7 -8 -8 -8 -8 -8 -8 -8 -8 -8 -8 -8 -8 -8 -8 -8 -8 -8 -8
1 1 0 0 -0 -1 -1 -2 -2 -2 -3 -3 -4 -4 -5 -5 -6 -6 -6 -7 -7 -7 -7 -8 -8 -8 -8 -8 -8 -8 -8 -9 -9 -9 -9 -9 -9 -9 -9 -9 -8 -8 -8 -8
0 -0 -0 -1 -1 -1 -2 -2 -3 -3 -4 -4 -5 -5 -5 -6 -6 -6 -7 -7 -7 -8 -8 -8 -8 -8 -9 -9 -9 -9 -9 -9 -9 -9 -9 -9 -9 -9 -9 -9 -9 -9 -9 -8
-0 -0 -1 -1 -1 -2 -2 -3 -3 -4 -4 -5 -5 -5 -6 -6 -7 -7 -7 -8 -8 -8 -8 -8 -9 -9 -9 -9 -9 -9 -9 -9 -10 -10 -10 -10 -9 -9 -9 -9 -9 -9 -9 -9
-1 -1 -1 -2 -2 -3 -3 -3 -4 -4 -5 -5 -6 -6 -6 -7 -7 -8 -8 -8 -9 -9 -9 -9 -9 -9 -10 -10 -10 -10 -10 -10 -10 -10 -10 -10 -10 -10 -10 -9 -9 -9 -9 -9
-1 -2 -2 -2 -3 -3 -4 -4 -5 -5 -6 -6 -6 -7 -7 -8 -8 -8 -9 -9 -9 -9 -10 -10 -10 -10 -10 -10 -10 -10 -10 -10 -10 -10 -10 -10 -10 -10 -10 -10 -10 -10 -9 -9
Wind_Speed
3 3 3 4 5 6 6 5 4 6 7 6 6 6 7 7 8 9 10 10 10 10 9 9 9 8 8 7 7 7 6 6 5 5 4 4 3 2 2 2 2 3 3 3
1 2 3 4 5 5 5 5 6 7 7 6 6 6 7 7 8 9 9 9 9 9 9 9 8 8 8 7 7 7 6 5 5 5 4 3 2 1 1 1 1 2 3 4
2 3 3 3 4 4 3 4 3 4 4 5 7 7 6 7 7 7 7 7 7 7 7 7 7 7 7 7 6 6 5 5 5 4 4 3 2 1 1 0 1 2 3 3
2 3 2 1 3 3 3 4 4 5 5 6 7 6 7 7 7 7 7 6 6 6 6 6 6 6 6 6 6 6 5 5 5 4 3 3 2 2 1 1 1 2 3 3
1 1 1 4 2 1 1 2 3 4 5 6 5 4 6 7 7 7 6 6 5 5 5 5 6 6 6 5 5 5 5 5 5 4 4 3 3 3 2 2 2 2 3 3
2 2 1 3 3 2 1 1 2 3 4 4 2 1 2 5 6 7 6 5 5 5 5 6 6 6 6 6 6 6 6 6 5 5 4 4 4 3 3 3 3 3 3 4
2 2 0 3 2 0 0 2 2 3 4 4 3 3 4 5 5 5 4 4 5 5 5 5 5 6 5 6 6 6 6 6 6 5 5 4 4 3 3 3 3 4 4 5
1 2 3 3 2 1 2 3 4 5 5 6 5 5 5 4 4 4 4 4 5 4 4 5 5 5 5 5 6 6 7 7 7 6 5 4 4 4 3 4 4 5 5 6
1 2 3 2 3 4 3 4 4 4 5 5 4 3 3 3 3 3 4 4 5 5 5 5 5 5 6 6 7 7 7 7 7 7 6 5 4 4 4 4 5 5 5 6
3 2 4 4 4 4 3 4 5 5 5 4 3 3 2 2 2 3 3 4 4 5 5 5 5 5 5 6 6 7 7 7 7 6 6 5 5 4 4 5 5 5 6 6
4 3 3 4 5 5 4 5 5 5 4 4 3 2 2 2 2 2 3 3 3 4 5 6 6 6 5 5 6 6 7 7 7 6 6 6 5 5 6 6 7 7 6 6
5 4 4 3 5 6 6 5 5 4 4 4 3 2 2 2 2 2 3 3 4 5 5 6 6 6 6 5 5 6 6 6 6 6 6 6 6 6 8 9 12 13 12 11
2 3 3 5 6 6 6 5 5 4 4 3 3 2 2 1 1 2 3 4 4 5 6 6 6 6 6 5 5 6 6 7 6 6 6 6 6 7 8 8 10 12 14 14
5 5 3 4 4 6 6 6 5 5 4 3 2 2 1 1 2 3 3 4 5 6 6 7 7 7 6 5 5 6 6 7 7 6 6 6 6 7 7 8 8 7 9 13
5 4 4 6 7 6 6 6 5 4 3 2 2 1 0 2 3 4 4 4 5 6 7 7 7 7 6 6 6 7 6 6 6 6 6 6 6 7 7 8 8 8 7 8
6 5 6 7 7 6 6 5 4 4 3 2 1 0 1 2 3 4 5 5 6 7 7 7 8 8 7 7 7 6 6 10 9 6 6 7 6 7 7 7 7 8 8 7
9 7 7 7 7 6 6 5 4 3 3 2 1 0 1 3 4 5 6 5 6 7 7 7 8 7 7 7 7 6 6 8 11 8 6 6 7 7 7 7 8 8 7 9
7 7 7 7 7 7 5 4 4 3 2 2 1 1 2 3 5 6 6 7 7 7 7 7 7 7 7 7 7 6 6 6 7 7 7 7 7 7 7 7 8 9 8 8
7 7 7 7 7 6 5 4 4 3 3 2 1 1 3 4 5 6 6 7 7 8 7 6 11 8 8 9 9 6 7 8 8 7 7 10 9 7 7 7 8 8 8 7
7 8 8 8 7 6 6 5 4 3 2 1 0 2 3 4 5 5 6 6 5 5 6 9 9 7 8 9 11 6 7 8 8 8 8 7 7 7 7 8 8 8 7 7
8 8 8 8 7 6 5 5 4 2 1 1 1 2 4 5 5 5 6 6 6 6 7 11 8 7 8 9 11 7 8 8 8 8 8 7 7 7 7 7 7 7 7 6
7 7 7 7 7 5 4 4 3 2 1 1 2 3 4 5 6 6 6 5 6 10 8 6 7 10 13 14 7 7 8 8 8 7 7 7 7 7 7 7 6 6 6 6
6 6 7 6 6 5 4 3 2 1 0 1 2 3 4 5 4 5 7 5 6 11 9 7 12 17 18 10 7 8 8 8 8 7 7 7 7 7 7 7 6 6 6 5
6 6 6 5 5 5 3 2 1 0 1 2 3 3 3 4 4 4 4 10 13 14 8 12 17 18 16 7 7 7 8 8 8 7 7 6 6 6 6 6 6 6 5 6
7 6 6 5 4 3 2 1 0 1 2 2 3 3 3 2 4 5 6 7 12 13 8 12 16 17 10 7 7 7 7 8 8 7 6 6 6 6 6 5 5 5 5 5
5 5 4 4 3 3 2 1 0 1 1 2 3 3 3 3 4 5 5 6 9 12 9 7 8 11 8 7 8 8 8 8 8 7 7 7 6 6 6 6 6 5 5 4
5 4 4 3 3 2 2 1 0 1 1 2 4 3 4 4 4 5 6 6 7 7 7 7 7 7 7 7 7 7 7 7 7 6 6 6 6 6 6 6 5 5 4 4
Wind_Direction
32 10 17 21 17 24 29 28 69 96 97 95 89 85 79 74 70 64 56 50 46 44 42 41 37 34 34 31 25 25 33 35 32 29 34 39 42 51 84 120 145 157 165 172
8 25 12 23 23 32 33 40 78 92 85 93 93 85 76 72 68 63 56 49 44 41 37 34 29 25 24 22 18 20 26 25 22 25 27 28 26 31 68 110 144 164 179 178
353 337 324 24 19 29 59 48 53 79 94 98 89 76 74 71 70 66 60 53 46 39 33 29 23 19 15 10 12 17 20 17 14 13 9 0 356 0 349 234 197 198 198 192
338 358 29 97 43 30 63 60 60 88 93 85 87 80 72 66 68 63 54 49 42 34 27 22 21 17 7 6 7 7 11 10 3 356 346 337 329 311 291 272 238 228 220 213
341 309 194 138 114 35 44 70 72 100 102 95 100 96 72 57 61 62 52 45 38 30 24 19 17 8 2 4 5 5 4 357 346 335 321 307 294 283 276 264 254 242 232 222
331 334 355 110 104 34 9 126 88 91 108 114 104 94 93 67 63 54 46 35 23 16 18 16 6 1 360 355 359 358 350 338 328 317 306 293 281 273 267 259 254 246 245 234
284 291 16 105 130 264 118 158 99 87 95 95 76 88 104 81 65 55 45 29 17 13 10 3 355 355 351 347 345 337 330 325 320 309 295 285 278 271 266 261 255 250 252 247
224 244 236 143 153 124 121 109 95 85 85 91 91 89 81 73 62 45 27 17 11 2 352 350 353 352 344 339 333 331 327 321 316 310 302 298 285 275 264 256 254 254 253 254
252 192 137 147 116 100 101 111 99 94 93 102 106 100 84 63 48 35 22 10 3 354 346 348 354 356 340 331 332 329 323 315 311 310 305 294 279 271 267 258 255 257 252 253
284 226 171 163 138 124 110 112 101 101 101 104 104 101 91 68 41 26 14 8 359 350 341 337 340 338 327 324 326 322 315 311 307 305 300 293 282 269 263 262 261 261 259 260
254 235 173 185 168 149 132 120 109 100 95 93 93 89 71 47 28 14 2 356 348 335 326 323 325 322 324 326 327 319 312 310 308 304 301 297 286 273 269 260 262 267 261 256
224 209 180 181 163 148 144 146 139 130 114 98 95 82 53 31 17 360 342 334 328 324 320 317 318 317 319 322 322 316 312 312 309 305 302 300 298 295 281 276 282 279 274 270
178 96 99 111 127 134 141 138 129 126 128 117 96 86 64 10 349 331 322 322 321 318 313 311 311 310 314 319 317 309 304 305 305 304 302 300 298 297 299 298 287 283 283 280
132 120 130 145 141 131 123 118 114 112 109 109 102 85 48 337 319 313 313 318 317 311 307 307 308 307 311 314 310 304 302 301 302 300 300 298 296 295 294 295 300 297 290 285
165 159 144 133 127 125 121 123 128 134 129 119 113 112 329 309 305 308 314 318 314 307 306 309 309 308 316 318 310 303 302 299 298 298 298 297 295 294 292 291 291 294 297 296
159 141 132 140 148 144 144 151 159 163 155 150 151 214 308 309 308 311 313 313 310 306 306 307 304 306 314 313 308 303 298 298 300 297 295 295 293 293 294 293 293 294 294 295
155 169 173 173 169 164 164 162 158 153 144 146 157 37 337 316 309 308 308 310 306 300 301 303 301 307 312 308 304 300 298 300 302 299 290 289 290 291 291 292 291 292 292 294
169 169 165 163 163 159 155 142 129 124 124 116 84 23 312 304 303 308 315 319 315 308 303 301 305 315 313 310 307 300 297 296 296 295 294 293 292 288 289 289 289 290 292 295
139 138 137 135 135 136 134 129 124 116 106 99 92 287 291 297 303 308 314 314 311 309 312 320 328 327 313 310 311 299 298 298 297 294 292 295 297 292 288 288 289 289 290 292
122 120 117 112 108 114 120 119 115 109 103 97 320 298 302 306 311 313 312 302 291 293 310 321 324 316 311 308 312 303 300 298 297 296 294 291 292 294 292 291 292 293 291 291
127 122 119 117 110 106 111 114 114 115 101 82 296 297 304 310 314 312 309 304 304 318 327 325 323 312 310 313 314 306 300 298 296 294 294 293 293 294 294 295 296 297 298 297
130 127 126 123 119 112 105 102 102 97 72 352 314 310 310 311 311 305 291 286 305 321 326 315 311 312 317 317 308 303 300 298 296 293 291 293 295 296 297 298 300 301 300 299
126 125 125 124 124 121 110 99 91 86 335 301 299 301 301 301 303 305 308 313 321 320 322 309 312 316 319 319 308 303 302 301 299 296 294 294 295 297 298 299 298 299 299 300
123 121 118 113 110 112 114 104 80 346 286 286 284 285 291 299 301 292 296 315 322 319 316 313 318 320 324 320 309 306 305 304 303 299 297 298 299 297 297 297 299 302 303 301
126 123 121 123 125 128 127 112 60 303 303 301 304 306 296 282 291 308 312 314 318 321 317 318 321 324 325 313 311 309 308 305 305 308 304 303 301 301 301 301 301 301 300 301
129 130 129 127 123 118 115 118 198 304 318 316 314 314 314 312 307 308 311 313 313 319 319 314 316 319 317 313 312 311 310 311 313 313 309 307 304 303 303 305 305 304 303 303
123 122 123 120 114 113 118 135 196 295 310 304 307 312 316 317 316 317 316 314 314 315 314 314 315 314 313 313 312 311 310 311 311 310 309 307 307 305 306 306 305 305 305 304
Height
1446 1443 1441 1442 1440 1439 1439 1439 1443 1447 1449 1452 1452 1453 1453 1453 1454 1454 1453 1453 1453 1452 1452 1452 1451 1451 1451 1451 1451 1451 1451 1451 1452 1453 1453 1454 1454 1454 1455 1456 1456 1457 1458 1459
1448 1443 1442 1443 1442 1442 1442 1442 1444 1447 1452 1452 1453 1455 1456 1456 1457 1457 1458 1457 1457 1456 1456 1455 1454 1454 1453 1453 1452 1452 1452 1452 1452 1452 1452 1452 1452 1452 1452 1452 1453 1453 1454 1455
1450 1445 1444 1448 1447 1446 1446 1447 1447 1451 1455 1453 1455 1457 1458 1459 1460 1461 1461 1461 1460 1459 1458 1458 1457 1456 1455 1454 1453 1453 1452 1452 1452 1451 1450 1450 1449 1449 1449 1449 1449 1449 1450 1451
1453 1451 1458 1455 1448 1448 1448 1449 1449 1451 1453 1455 1457 1459 1460 1461 1462 1462 1462 1462 1461 1461 1460 1459 1458 1457 1456 1455 1454 1453 1452 1451 1450 1449 1448 1448 1447 1446 1446 1446 1445 1445 1446 1446
1455 1454 1450 1451 1450 1449 1450 1452 1452 1453 1455 1457 1458 1459 1462 1463 1462 1463 1462 1462 1462 1461 1460 1459 1458 1457 1456 1455 1454 1452 1451 1449 1448 1447 1446 1445 1444 1443 1443 1442 1441 1441 1441 1441
1454 1454 1453 1453 1451 1450 1452 1455 1454 1453 1455 1457 1458 1462 1465 1464 1463 1463 1462 1462 1461 1460 1459 1458 1457 1455 1454 1453 1452 1450 1449 1447 1446 1444 1443 1442 1441 1440 1439 1438 1437 1437 1436 1437
1457 1455 1452 1452 1451 1452 1457 1459 1455 1455 1456 1457 1459 1462 1464 1463 1463 1463 1462 1461 1461 1460 1458 1457 1456 1454 1452 1451 1449 1448 1446 1444 1443 1441 1439 1438 1436 1435 1434 1433 1432 1432 1431 1431
1455 1457 1459 1452 1452 1454 1456 1455 1455 1456 1457 1458 1460 1461 1462 1462 1462 1462 1461 1461 1460 1458 1457 1455 1454 1452 1450 1448 1446 1444 1443 1441 1439 1437 1435 1434 1432 1431 1430 1429 1427 1426 1425 1425
1453 1455 1452 1451 1451 1453 1453 1455 1455 1456 1457 1458 1460 1461 1461 1462 1462 1461 1461 1460 1458 1457 1455 1454 1452 1450 1448 1446 1444 1442 1440 1437 1435 1433 1432 1430 1428 1426 1425 1424 1423 1421 1420 1419
1451 1448 1448 1450 1451 1452 1453 1454 1455 1456 1457 1458 1459 1460 1460 1461 1460 1460 1459 1458 1457 1455 1454 1452 1450 1448 1446 1444 1441 1439 1436 1434 1431 1429 1427 1425 1423 1422 1421 1419 1418 1416 1415 1414
1450 1447 1447 1448 1449 1450 1451 1453 1454 1455 1456 1457 1458 1458 1459 1459 1459 1458 1457 1456 1454 1453 1451 1449 1447 1445 1443 1441 1438 1435 1432 1430 1427 1425 1422 1420 1418 1417 1415 1414 1413 1411 1410 1408
1447 1443 1444 1445 1446 1448 1449 1451 1452 1453 1454 1455 1456 1457 1457 1457 1456 1456 1455 1453 1452 1450 1448 1446 1444 1442 1439 1437 1434 1431 1428 1425 1422 1420 1417 1415 1413 1411 1409 1409 1407 1405 1404 1403
1440 1440 1442 1443 1444 1446 1447 1449 1450 1452 1453 1454 1454 1455 1454 1454 1454 1453 1452 1450 1449 1447 1445 1443 1440 1438 1436 1433 1430 1427 1424 1421 1418 1415 1413 1411 1408 1406 1403 1401 1400 1399 1397 1396
1437 1439 1440 1441 1443 1444 1446 1447 1449 1450 1451 1452 1452 1452 1452 1452 1451 1450 1449 1447 1445 1443 1441 1439 1437 1434 1432 1429 1426 1423 1420 1417 1414 1411 1409 1406 1404 1401 1399 1396 1393 1391 1391 1389
1434 1436 1438 1439 1441 1442 1444 1445 1447 1448 1449 1449 1450 1450 1449 1449 1448 1447 1445 1444 1441 1439 1437 1435 1432 1430 1427 1424 1421 1418 1416 1413 1410 1407 1404 1402 1399 1397 1394 1392 1389 1386 1384 1383
1431 1433 1435 1437 1438 1440 1442 1443 1445 1446 1446 1447 1447 1447 1447 1446 1445 1443 1442 1440 1438 1435 1433 1431 1428 1426 1423 1420 1417 1414 1411 1408 1406 1403 1400 1397 1395 1392 1390 1387 1385 1382 1380 1378
1428 1430 1432 1434 1436 1438 1439 1441 1442 1443 1444 1444 1444 1444 1443 1442 1441 1440 1438 1436 1434 1432 1430 1427 1424 1421 1418 1415 1412 1409 1406 1403 1401 1398 1396 1393 1391 1388 1386 1383 1381 1378 1376 1374
1424 1427 1429 1431 1433 1435 1437 1439 1440 1441 1441 1442 1441 1441 1440 1439 1437 1436 1434 1432 1430 1428 1426 1423 1420 1417 1414 1411 1407 1404 1401 1399 1396 1394 1391 1389 1386 1384 1381 1379 1376 1374 1371 1369
1422 1425 1427 1429 1431 1433 1435 1437 1438 1439 1439 1439 1438 1437 1436 1435 1434 1432 1430 1428 1426 1423 1421 1418 1416 1412 1409 1406 1403 1400 1397 1394 1391 1389 1387 1384 1382 1379 1377 1375 1372 1370 1367 1365
1420 1423 1425 1427 1430 1431 1433 1434 1435 1436 1436 1436 1435 1434 1433 1432 1430 1428 1426 1424 1422 1420 1417 1414 1411 1408 1405 1402 1399 1395 1392 1389 1387 1384 1382 1380 1377 1375 1373 1371 1368 1365 1363 1361
1419 1421 1424 1426 1428 1430 1431 1432 1433 1433 1433 1433 1432 1431 1430 1428 1427 1425 1422 1420 1418 1416 1413 1410 1406 1403 1400 1397 1394 1391 1388 1385 1382 1380 1378 1376 1373 1371 1369 1367 1364 1362 1359 1357
1418 1421 1423 1425 1427 1428 1429 1430 1431 1431 1430 1430 1429 1428 1426 1424 1423 1421 1419 1417 1414 1411 1408 1405 1402 1399 1396 1393 1390 1387 1384 1381 1378 1376 1374 1371 1369 1367 1365 1363 1360 1358 1356 1354
1418 1420 1422 1424 1425 1426 1427 1428 1428 1428 1428 1427 1426 1424 1423 1421 1419 1417 1414 1412 1409 1406 1403 1400 1398 1395 1392 1388 1385 1382 1379 1376 1374 1372 1369 1367 1365 1363 1361 1359 1357 1355 1352 1350
1417 1419 1421 1423 1424 1425 1425 1426 1426 1425 1425 1424 1423 1421 1419 1417 1415 1413 1411 1408 1405 1402 1399 1396 1393 1390 1387 1384 1381 1378 1375 1372 1370 1367 1365 1363 1361 1359 1357 1355 1353 1351 1349 1347
1416 1418 1420 1421 1422 1422 1423 1423 1423 1423 1422 1421 1419 1418 1416 1414 1412 1409 1407 1404 1401 1398 1395 1392 1389 1386 1383 1380 1377 1374 1371 1369 1366 1364 1361 1359 1357 1355 1353 1351 1349 1347 1346 1344
1415 1416 1418 1419 1420 1420 1420 1420 1420 1419 1419 1417 1416 1414 1412 1410 1408 1405 1403 1400 1397 1394 1391 1388 1385 1382 1379 1376 1373 1370 1368 1365 1363 1360 1358 1356 1353 1351 1349 1347 1346 1344 1342 1341
1413 1415 1416 1416 1417 1417 1418 1417 1417 1416 1415 1414 1412 1411 1409 1406 1404 1401 1399 1396 1393 1390 1387 1384 1381 1378 1375 1373 1370 1367 1365 1362 1359 1357 1355 1353 1350 1348 1346 1344 1343 1341 1339 1338